Regional Weather Roundup
Issued by NWS State College, PA

Home | Current Version | Previous Version | Graphics & Text | Print | Product List | Glossary On
Versions: 1 2 3 4 5 6 7 8 9 10 11 12 13 14 15 16 17 18 19 20 21 22 23 24 25 26 27 28 29 30 31 32 33 34 35 36 37 38 39 40 41 42 43 44 45 46 47 48 49 50
000
ASUS41 KCTP 282203
RWRCTP

REGIONAL WEATHER ROUNDUP
NATIONAL WEATHER SERVICE STATE COLLEGE PA
500 PM EST SUN DEC 28 2014

Note: "fair" indicates few or no clouds below 12,000 feet with no
significant weather and/or obstructions to visibility.

* = STATION THAT DOES NOT REPORT PRECIPITATION /E.G. RAIN...SNOW...ETC/
    THUNDER OR FOG.

PAZ002>004-007>009-013>016-020>023-029>032-282300-
WESTERN PENNSYLVANIA

CITY           SKY/WX    TMP DP  RH WIND       PRES   REMARKS
ERIE           CLOUDY    36  26  67 SW5       30.08R
MEADVILLE      CLOUDY    33  28  81 CALM      30.05S
FRANKLIN*      CLOUDY    34  27  75 CALM      30.06S
NEW CASTLE       N/A     35  32  89 W5        30.10R
BEAVER COUNTY  CLOUDY    36  30  80 W3        30.07R
BUTLER*        CLOUDY    36  30  80 W5        30.08R
PITTSBURGH INT CLOUDY    37  30  75 W7        30.07R
PITTSBURGH     CLOUDY    36  28  73 NW5       30.06S
INDIANA*       CLOUDY    36  34  93 W6        30.09R
LATROBE        CLOUDY    36  36 100 SW3       30.08R
WASHINGTON CO* NOT AVBL
$$

PAZ004>006-010>012-017>019-024>028-033>037-041-042-045-046-049>053-282300-
CENTRAL PENNSYLVANIA

CITY           SKY/WX    TMP DP  RH WIND       PRES   REMARKS
BRADFORD       CLOUDY    31  24  75 W7        30.00R
DUBOIS         CLOUDY    34  30  85 NW6       30.00R
CLEARFIELD     CLOUDY    37  29  72 NW8       30.02R
JOHNSTOWN      FOG       33  32  96 W9        30.00S VSB 3/4
ALTOONA        CLOUDY    37  32  82 N7        30.04R
STATE COLLEGE  MOCLDY    37  30  75 W5        30.02R
WILLIAMSPORT   CLOUDY    43  31  62 W6        30.01R
SELINSGROVE    CLOUDY    46  35  65 NW8       30.02R
FT INDIANTOWN  CLOUDY    48  38  67 W9        30.00R
CAPITAL CITY   CLOUDY    49  38  65 NW9       30.01R
HARRISBURG     CLOUDY    46  38  73 NW9       30.00R
YORK           CLOUDY    50  40  68 NW6       30.00R
$$

PAZ038>040-043-044-047-048-054-055-060>062-067>071-282300-
EASTERN PENNSYLVANIA

CITY           SKY/WX    TMP DP  RH WIND       PRES   REMARKS
SCRANTON       CLOUDY    42  31  64 NW6       29.98R
MOUNT POCONO   CLOUDY    38  31  76 NW10      29.93R
ALLENTOWN      CLOUDY    50  36  58 W8        29.96R
QUAKERTOWN*    CLOUDY    48  41  76 CALM      29.97R
READING        CLOUDY    49  40  71 VRB6      29.98R
LANCASTER      CLOUDY    48  39  71 NW8       29.98R
COATESVILLE    CLOUDY    50  45  81 NW6       29.98S
POTTSTOWN      CLOUDY    49  41  74 W3        29.98R
BLUE BELL      CLOUDY    52  43  71 W3        29.96R
DOYLESTOWN     CLOUDY    49  41  74 NW9       29.96R
WILLOW GROVE   NOT AVBL
NORTH PHILA    CLOUDY    54  40  59 NW5       29.98R
PHILADELPHIA   CLOUDY    55  41  59 NW8       29.98R
$$


USA.gov is the U.S. government's official web portal to all federal, state and local government web resources and services.